[[{"header":{"parameterUnit":"m.s-1","parameterCategory":1,"la1":30.2991,"la2":30.254,"lo1":-89.0895,"lo2":-89.0444,"dy":0.0017,"dx":0.0017,"nx":28,"ny":28,"refTime":"2024-08-09T15:00:00:Z","depth":0,"parameterNumber":2,"parameterNumberName":"U-component_of_WINDS"},"data":[0,0,0,0,0,0,0,0,0,0,0,0,0,0,0,0,0,0,0,0,0,0,0,0,0,0,0,0,0,0,0,0,0,0,0,0,0,0,0,0,0,0,0,0,0,0,0,0,0,0,0,0,0,0,0,0,0,0,2.6314,2.6315,0,2.6418,2.642,2.6421,2.6355,2.6352,2.6349,2.6346,2.6459,2.6465,2.6471,0,0,0,0,0,0,0,0,0,0,0,0,0,2.6064,2.6069,2.6314,2.6316,2.6317,2.6418,2.642,2.6421,2.6356,2.6352,2.6348,2.6345,2.6458,2.6464,2.6472,0,0,0,0,0,0,0,0,0,0,0,0,0,2.6171,2.6071,2.6314,2.6296,2.6296,2.6418,2.642,2.6421,2.6357,2.6352,2.6347,2.6343,2.6455,2.6464,2.6472,2.662,0,0,2.6499,2.6503,0,0,0,0,0,0,0,0,2.6165,2.6181,2.6298,2.6298,2.6297,2.6369,2.6373,2.6488,2.6358,2.6334,2.6346,2.6341,2.6434,2.6444,2.6474,2.6625,2.663,2.65,2.6506,2.6509,2.6512,0,0,0,0,0,0,0,2.6158,2.6176,2.6356,2.6299,2.6299,2.6285,2.6295,2.6394,2.6409,2.6336,2.6331,2.6344,2.6433,2.6465,2.6476,2.6631,2.65,2.6508,2.6513,2.6517,2.6909,2.6913,0,0,0,0,0,0,2.6151,2.617,2.6352,2.6359,2.6218,2.6293,2.6304,2.6351,2.6407,2.6411,2.6348,2.634,2.6453,2.6466,2.648,2.6655,2.6509,2.6518,2.6523,2.6903,2.691,2.6915,0,0,0,0,0,0,2.6146,2.6168,2.6348,2.6263,2.6285,2.6302,2.6355,2.6355,2.6388,2.6416,2.6419,2.6378,2.6449,2.6467,2.6585,2.6658,2.6522,2.653,2.6897,2.6905,2.6912,2.7008,0,0,0,0,0,0,2.6139,2.6167,2.6222,2.6265,2.629,2.645,2.636,2.6361,2.6403,2.6394,2.6446,2.645,2.6447,2.6572,2.6594,2.6668,2.6537,2.6891,2.6901,2.691,2.6999,2.7018,2.7035,0,0,0,0,0,2.613,2.6246,2.6225,2.6247,2.6358,2.6454,2.6469,2.6461,2.6409,2.6465,2.6483,2.6448,2.6647,2.6585,2.6608,2.6687,2.6886,2.6898,2.6909,2.6991,2.7015,2.7035,0,0,0,0,0,0,2.6214,2.6251,2.6228,2.6361,2.6405,2.6443,2.6514,2.6487,2.6549,2.6538,2.6528,2.6541,2.6663,2.6687,2.6617,2.6832,2.6758,2.6775,2.6812,2.6835,2.6853,2.6845,2.6544,0,0,0,0,0,2.6247,2.632,2.635,2.6464,2.6487,2.6497,2.6538,2.6528,2.6574,2.6593,2.662,2.6668,2.6741,2.6789,2.6858,2.7002,2.7012,2.7067,2.7085,2.71,2.7115,2.7193,2.7218,2.6953,2.6953,2.6953,0,0,2.6317,2.6347,2.6394,2.6481,2.6514,2.6591,2.6513,2.6598,2.6656,2.6607,2.6719,2.674,2.6793,2.6924,2.6983,2.6948,2.7191,2.7115,2.7127,2.7134,2.7207,2.7233,2.7255,2.6961,2.6959,2.6958,0,0,2.6485,2.6514,2.6612,2.6646,2.6696,2.6702,2.6725,2.6768,2.6779,2.6891,2.6856,2.6925,2.7051,2.709,2.7126,2.7307,2.7278,2.733,2.7426,2.7502,2.7523,2.7541,2.7606,2.763,2.7345,2.7345,2.7345,0,2.6567,2.668,2.6667,2.6754,2.6794,2.675,2.685,2.6885,2.6956,2.6985,2.6943,2.7099,2.7132,2.7271,2.7315,2.7346,2.7374,2.7325,2.752,2.7539,2.7556,2.7618,2.7642,2.7351,2.735,2.735,2.7349,0,2.6778,2.6857,2.6931,2.6997,2.7045,2.7139,2.7141,2.7192,2.7178,2.7188,2.7303,2.734,2.7415,2.7448,2.7436,2.7586,2.7562,2.7521,2.7447,2.7587,2.7645,2.7669,2.736,2.7358,2.7356,2.7354,0,0,2.7003,2.7059,2.7086,2.7116,2.7167,2.7229,2.7321,2.7392,2.7436,2.7486,2.7564,2.767,2.7632,2.7673,2.7665,2.7732,2.7873,2.7682,2.7683,2.7717,2.8041,2.8072,2.81,2.7853,2.7858,2.7862,2.8037,0,2.7173,2.7331,2.7321,2.7471,2.7544,2.7503,2.7583,2.7624,2.7637,2.7702,2.7716,2.7792,2.7735,2.776,2.7824,2.7842,2.7938,2.783,2.7927,2.7931,2.7916,2.813,2.8164,2.8328,2.806,2.8063,2.8066,0,2.7394,2.7449,2.7605,2.7644,2.7674,2.7746,2.781,2.7873,2.7919,2.7923,2.7968,2.7949,2.8044,2.7967,2.8097,2.8024,2.8063,2.8078,2.8084,2.8094,2.8008,2.8146,2.838,2.8404,2.8102,2.8099,2.8096,0,2.7542,2.7655,2.7763,2.7789,2.7838,2.7889,2.7913,2.7953,2.7997,2.8054,2.8082,2.815,2.8188,2.8241,2.8242,2.8185,2.8375,2.8297,2.8382,2.8382,2.8424,2.8422,2.8668,2.8449,2.8449,2.8448,2.8448,0,2.7734,2.7832,2.783,2.7896,2.8004,2.7992,2.81,2.8118,2.8155,2.8225,2.8195,2.8262,2.8258,2.8326,2.8327,2.8436,2.8453,2.846,2.846,2.8464,2.8463,2.849,2.8479,2.8455,2.8453,2.8452,2.8451,0,2.7919,2.7921,2.8036,2.8071,2.8083,2.8161,2.8192,2.8256,2.8264,2.8354,2.8374,2.8389,2.8468,2.8473,2.8565,2.8566,2.8698,2.8684,2.8681,2.8679,2.8764,2.8756,2.9037,2.9073,2.883,2.8832,2.8834,0,2.8041,2.8115,2.8157,2.8201,2.8226,2.8297,2.834,2.8332,2.8379,2.8436,2.8493,2.8568,2.8628,2.8757,2.8777,2.8847,2.8836,2.8929,2.8847,2.8848,2.8838,2.8834,2.8841,2.8946,2.8949,2.8951,2.8952,0,2.8259,2.8256,2.8318,2.8381,2.8433,2.8483,2.8529,2.8567,2.8564,2.8618,2.8697,2.8743,2.8836,2.8912,2.898,2.9006,2.898,2.8978,2.9001,2.9007,2.9002,2.9006,2.8726,2.8972,2.897,2.8969,2.8968,2.8967,2.8417,2.848,2.8519,2.8589,2.8622,2.8666,2.8727,2.8742,2.8807,2.888,2.8872,2.896,2.9004,2.9092,2.9123,2.9193,2.9162,2.9196,2.9205,2.9213,2.9222,2.899,2.9206,2.9205,2.9205,2.9204,2.9204,0,2.8633,2.8656,2.872,2.8784,2.884,2.8807,2.8857,2.8906,2.8983,2.9025,2.9083,2.9174,2.9248,2.9273,2.9344,2.9396,2.9385,2.9415,2.9411,2.9418,2.9246,2.9219,2.9422,2.9422,2.9422,2.9421,2.9421,2.9421,2.8753,2.8857,2.8859,2.898,2.9002,2.9086,2.9117,2.9158,2.9191,2.9293,2.9352,2.9367,2.9403,2.9477,2.9543,2.9549,2.9577,2.9612,2.9613,2.9452,2.943,2.9409,2.9383,2.9618,2.9618,2.9778,2.978,2.9781]},{"header":{"parameterUnit":"m.s-1","parameterCategory":1,"la1":30.2991,"la2":30.254,"lo1":-89.0895,"lo2":-89.0444,"dy":0.0017,"dx":0.0017,"nx":28,"ny":28,"refTime":"2024-08-09T15:00:00:Z","depth":0,"parameterNumber":3,"parameterNumberName":"V-component_of_WINDS"},"data":[0,0,0,0,0,0,0,0,0,0,0,0,0,0,0,0,0,0,0,0,0,0,0,0,0,0,0,0,0,0,0,0,0,0,0,0,0,0,0,0,0,0,0,0,0,0,0,0,0,0,0,0,0,0,0,0,0,0,0.3694,0.3694,0,0.3693,0.3693,0.3693,0.3635,0.3633,0.3632,0.363,0.3634,0.3635,0.3637,0,0,0,0,0,0,0,0,0,0,0,0,0,0.3646,0.3647,0.3694,0.3694,0.3694,0.3693,0.3693,0.3693,0.3635,0.3633,0.3631,0.363,0.3633,0.3635,0.3637,0,0,0,0,0,0,0,0,0,0,0,0,0,0.3659,0.3648,0.3694,0.3664,0.3662,0.3693,0.3693,0.3693,0.3635,0.3633,0.3631,0.3629,0.3633,0.3635,0.3637,0.3698,0,0,0.3644,0.3645,0,0,0,0,0,0,0,0,0.3658,0.366,0.3669,0.3667,0.3664,0.3662,0.3678,0.3695,0.3636,0.3646,0.363,0.3628,0.3645,0.3646,0.3651,0.3698,0.3698,0.3644,0.3646,0.3647,0.3647,0,0,0,0,0,0,0,0.3657,0.366,0.3694,0.3669,0.3666,0.3652,0.3651,0.3681,0.3659,0.3645,0.364,0.3641,0.3643,0.3649,0.3651,0.3698,0.3644,0.3646,0.3648,0.3649,0.3793,0.3795,0,0,0,0,0,0,0.366,0.366,0.3694,0.3694,0.3655,0.3655,0.3654,0.3665,0.3658,0.3655,0.3643,0.3638,0.3647,0.3648,0.3651,0.372,0.3647,0.3649,0.365,0.379,0.3793,0.3796,0,0,0,0,0,0,0.3659,0.3663,0.3694,0.3676,0.3678,0.3658,0.3671,0.3666,0.3672,0.3657,0.3653,0.3653,0.3645,0.3648,0.3686,0.372,0.365,0.3652,0.3787,0.3791,0.3795,0.386,0,0,0,0,0,0,0.3658,0.3664,0.3686,0.3676,0.3679,0.3728,0.3673,0.3668,0.3676,0.3669,0.3665,0.3662,0.3643,0.3683,0.3688,0.3721,0.3654,0.3784,0.3789,0.3793,0.3855,0.3866,0.3875,0,0,0,0,0,0.3657,0.3706,0.3687,0.3692,0.3707,0.373,0.3732,0.3708,0.3679,0.3701,0.3691,0.3662,0.3715,0.3687,0.3693,0.3727,0.3782,0.3788,0.3793,0.3851,0.3864,0.3875,0,0,0,0,0,0,0.3721,0.3704,0.3683,0.3731,0.3732,0.372,0.3748,0.3723,0.3734,0.3728,0.3699,0.3698,0.3741,0.3738,0.3707,0.3785,0.3743,0.375,0.3785,0.3798,0.3807,0.3807,0.3656,0,0,0,0,0,0.3741,0.376,0.3744,0.3788,0.3789,0.3769,0.3778,0.3759,0.376,0.3761,0.3754,0.3757,0.3773,0.3785,0.38,0.3854,0.3852,0.3881,0.3891,0.3899,0.3905,0.3932,0.3945,0.3814,0.3814,0.3814,0,0,0.3782,0.3775,0.3789,0.38,0.3799,0.382,0.377,0.3795,0.381,0.3765,0.38,0.3795,0.3796,0.3842,0.3862,0.3841,0.3941,0.3906,0.3913,0.3914,0.3939,0.3952,0.3963,0.3818,0.3817,0.3816,0,0,0.3867,0.3864,0.3898,0.3898,0.3896,0.3882,0.3891,0.3882,0.3877,0.3911,0.3877,0.3896,0.3926,0.3927,0.3933,0.4017,0.3991,0.4023,0.4075,0.4102,0.4112,0.4121,0.415,0.4161,0.4029,0.4029,0.403,0,0.3918,0.3948,0.392,0.3947,0.3952,0.3911,0.3946,0.3947,0.3952,0.3957,0.3933,0.3969,0.3967,0.4012,0.4032,0.4038,0.4047,0.4023,0.4113,0.4121,0.4129,0.4157,0.4168,0.4033,0.4033,0.4032,0.4032,0,0.4011,0.4032,0.406,0.4063,0.4072,0.4104,0.4081,0.4094,0.4074,0.4062,0.4098,0.4094,0.4106,0.4116,0.4098,0.4158,0.4145,0.4117,0.4075,0.4146,0.4171,0.4182,0.4039,0.4037,0.4036,0.4035,0,0,0.4137,0.4123,0.4134,0.4134,0.4129,0.4145,0.4174,0.4185,0.4196,0.42,0.4224,0.425,0.4223,0.4229,0.4211,0.4234,0.43,0.4204,0.4203,0.4221,0.4366,0.4386,0.4399,0.4283,0.4285,0.4286,0.4365,0,0.4218,0.4266,0.4241,0.4292,0.4311,0.4271,0.4296,0.4296,0.4286,0.4301,0.429,0.4309,0.4273,0.4276,0.4298,0.4288,0.4329,0.4282,0.4305,0.4306,0.4305,0.4412,0.4434,0.4508,0.4375,0.4377,0.4378,0,0.432,0.4326,0.4378,0.4368,0.4375,0.4398,0.4405,0.442,0.4419,0.441,0.4416,0.4392,0.442,0.4378,0.4416,0.4385,0.4393,0.4389,0.4391,0.4392,0.4346,0.4415,0.4532,0.4543,0.4394,0.4392,0.4391,0,0.4405,0.4427,0.4461,0.4462,0.4452,0.4469,0.4465,0.4462,0.4469,0.4476,0.4481,0.4492,0.4498,0.4507,0.4487,0.4458,0.4527,0.4484,0.4521,0.4521,0.4537,0.4536,0.4656,0.4543,0.4543,0.4543,0.4543,0,0.4498,0.4531,0.4498,0.4519,0.4555,0.4527,0.4564,0.4556,0.4554,0.4572,0.454,0.4558,0.453,0.4546,0.4531,0.4564,0.4568,0.4561,0.4556,0.4563,0.4564,0.4568,0.4562,0.4546,0.4545,0.4545,0.4544,0,0.4599,0.4579,0.4613,0.4599,0.4596,0.4624,0.4612,0.4631,0.4619,0.4643,0.4647,0.4628,0.4645,0.4625,0.4641,0.463,0.4675,0.4664,0.4675,0.4672,0.4709,0.4705,0.4835,0.485,0.4729,0.473,0.4731,0,0.466,0.4684,0.4673,0.4682,0.468,0.4696,0.4703,0.4677,0.4686,0.4686,0.4705,0.4719,0.4728,0.4757,0.4745,0.4757,0.4745,0.4789,0.4746,0.4752,0.4744,0.4743,0.4745,0.4798,0.4799,0.48,0.4801,0,0.4768,0.4756,0.4767,0.4775,0.4784,0.4789,0.4792,0.4802,0.4774,0.4786,0.4802,0.4809,0.4824,0.4839,0.4847,0.4844,0.4818,0.4815,0.4824,0.4831,0.4836,0.4833,0.4698,0.4812,0.4811,0.481,0.481,0.4809,0.485,0.4869,0.4864,0.4877,0.4876,0.4879,0.4895,0.4884,0.4896,0.4906,0.489,0.491,0.4908,0.4916,0.4916,0.4931,0.4913,0.4926,0.4929,0.4932,0.4938,0.4834,0.4933,0.4933,0.4932,0.4932,0.4932,0,0.4956,0.495,0.4963,0.4966,0.4977,0.495,0.4952,0.4962,0.498,0.498,0.4989,0.5008,0.5021,0.5009,0.502,0.5035,0.5024,0.5039,0.5037,0.5037,0.4954,0.4945,0.5048,0.5048,0.5048,0.5048,0.5048,0.5048,0.5012,0.5043,0.5031,0.5061,0.5055,0.5073,0.5076,0.5079,0.5078,0.5099,0.511,0.5102,0.5097,0.5107,0.5118,0.5114,0.512,0.5139,0.5131,0.5054,0.5043,0.5032,0.5023,0.5141,0.5141,0.5212,0.5213,0.5213]}]]